Lid_Strength_Index
14 15 15 15 15 15 15 14 13 12 12 12 12 12 11 11 11 11 11 11 10 10
15 15 15 15 15 15 14 13 13 12 13 12 12 12 12 12 12 12 12 11 11 11
15 14 14 15 16 15 14 13 13 13 13 13 13 13 12 12 12 12 12 12 12 11
14 14 15 15 16 15 14 13 13 13 13 13 13 13 13 13 12 12 12 12 12 12
14 15 15 16 16 15 15 14 13 13 13 13 13 13 13 13 13 13 13 13 12 12
15 17 21 21 18 17 17 17 14 13 13 13 13 13 13 13 13 13 13 12 12 12
17 18 21 22 17 19 19 16 14 13 14 14 14 13 13 13 13 13 12 12 12 12
21 22 23 24 20 14 13 17 13 14 14 14 14 13 12 12 13 13 13 12 12 12
24 24 25 26 24 17 15 20 17 16 14 14 13 11 10 11 14 13 13 13 13 12
26 26 26 26 25 22 22 22 21 20 18 16 14 11 11 12 14 14 14 13 12 12
25 25 26 26 25 25 24 22 22 22 22 21 17 12 11 12 16 16 16 14 13 12
22 23 26 25 25 25 23 21 22 21 23 22 21 13 11 14 17 16 17 16 14 12
21 22 23 23 25 24 24 20 19 19 22 21 21 15 12 13 15 18 17 18 15 13
21 22 22 22 22 21 22 21 23 20 21 21 21 20 13 13 17 19 18 17 16 15